Flag for Myanmar Weather past 2 weeks in Yangon, Myanmar

79 °F

Passing clouds.

Feels Like: 82 °F
Forecast: 73 / 92 °F
Wind: 2 mph from North

Location: Rangoon Airport

Current Time: Dec 1, 2015 at 1:20:41 AM

Latest Report: Dec 1, 2015 at 12:30 AM

Visibility: 4 mi

Pressure: 29.92 "Hg

Humidity: 84%

Dew point: 73 °F

Location of YangonLocation

Historic Weather in Yangon — Graph


Yangon temperature yesterday

Maximum temperature yesterday: 93 °F (at 2:00 PM)
Minimum temperature yesterday: 75 °F (at 5:00 AM)
Average temperature yesterday: 85 °F

Past Weeks' High & Low Weather Summary

High93 °F (Nov 16, 2:00 PM)100% (Nov 24, 10:00 PM)30.01 "Hg (Nov 24, 10:00 PM)
Low68 °F (Nov 25, 5:30 AM)47% (Nov 29, 1:30 PM)29.77 "Hg (Nov 16, 3:00 PM)
Average84 °F72%29.89 "Hg
* Reported Nov 15 11:30 PM — Midnight between Nov 30 and Dec 1, Yangon, Weather by CustomWeather, © 2015

Note: Actual official high and low records may vary slightly from our data, if they occured in-between our weather recording intervals... More about our weather records


Yangon weather history for previous 24 hours

Time TempWeatherWind HumidityBarometerVisibility
12:00 AM
Tue, Dec 1
79 °FPassing clouds.2 mph84%29.92 "Hg4 mi
11:30 PM
Mon, Nov 30
79 °FPassing clouds.2 mph84%29.95 "Hg4 mi
11:00 PM79 °FPassing clouds.2 mph84%29.95 "Hg4 mi
10:30 PM81 °FPassing clouds.2 mph79%29.95 "Hg4 mi
10:00 PM81 °FPassing clouds.2 mph79%29.95 "Hg4 mi
9:30 PM81 °FPassing clouds.2 mph79%29.95 "Hg4 mi
9:00 PM82 °FPassing clouds.2 mph70%29.95 "Hg4 mi
8:30 PM82 °FPassing clouds.2 mph70%29.92 "Hg4 mi
8:00 PM84 °FPassing clouds.2 mph66%29.92 "Hg4 mi
7:30 PM84 °FPassing clouds.5 mph66%29.92 "Hg4 mi
7:00 PM84 °FPassing clouds.3 mph66%29.92 "Hg4 mi
6:30 PM84 °FPassing clouds.3 mph66%29.89 "Hg4 mi
6:00 PM88 °FPassing clouds.3 mph66%29.89 "Hg4 mi
5:30 PM90 °FPartly sunny.6 mph63%29.89 "Hg4 mi
5:00 PM90 °FPartly sunny.6 mph63%29.89 "Hg5 mi
4:30 PM93 °FPartly sunny.6 mph49%29.89 "Hg6 mi
4:00 PM93 °FBroken clouds.6 mph49%29.89 "Hg6 mi
3:30 PM93 °FBroken clouds.7 mph49%29.89 "Hg6 mi
3:00 PM93 °FBroken clouds.5 mph49%29.89 "Hg6 mi
2:30 PM93 °FBroken clouds.3 mph49%29.89 "Hg6 mi
2:00 PM93 °FBroken clouds.3 mph49%29.89 "Hg6 mi
1:30 PM91 °FBroken clouds.7 mph52%29.89 "Hg6 mi
1:00 PM91 °FPartly sunny.5 mph52%29.92 "Hg5 mi
12:30 PM91 °FPartly sunny.5 mph52%29.95 "Hg5 mi
12:00 PM90 °FPartly sunny.6 mph55%29.95 "Hg5 mi
11:30 AM88 °FPartly sunny.7 mph59%29.98 "Hg5 mi
11:00 AM88 °FPartly sunny.7 mph59%29.98 "Hg5 mi
10:00 AM86 °FRain. Cloudy.8 mph62%30.01 "Hg5 mi
9:30 AM84 °FRain. Cloudy.8 mph70%30.01 "Hg4 mi
9:00 AM82 °FRain. Cloudy.8 mph74%30.01 "Hg4 mi
8:30 AM79 °FRain. Cloudy.8 mph79%30.01 "Hg4 mi
7:00 AM75 °FRain. Cloudy.3 mph94%29.98 "Hg4 mi
6:30 AM75 °FRain. Overcast.3 mph94%29.98 "Hg4 mi
6:00 AM75 °FRain. Overcast.3 mph94%29.95 "Hg4 mi
5:00 AM75 °FRain. Overcast.3 mph94%29.95 "Hg4 mi
Weather by CustomWeather, © 2015

See weather overviewHow to use our weather pages